METAR ET TAF INFORMATION
METAR FOR KPTV
ADDS - METARS form results

(0826 UTC 25 June 2019)
Data provider http://aviationweather.gov/metar/data/
 
METAR text: KPTV 250756Z AUTO 22004KT 10SM CLR 21/13 A2977 RMK AO2 SLP086 T02060133 403780172
Conditions at: KPTV (PORTERVILLE , CA, US) observed 0756 UTC 25 June 2019
Temperature: 20.6°C (69°F)
Dewpoint: 13.3°C (56°F) [RH = 63%]
Pressure (altimeter): 29.77 inches Hg (1008.2 mb)
[Sea-level pressure: 1008.6 mb]
Winds: from the SW (220 degrees) at 5 MPH (4 knots; 2.1 m/s)
Visibility: 10 or more miles (16+ km)
Ceiling: at least 12,000 feet AGL
Clouds: sky clear below 12,000 feet AGL
Weather: automated observation with no human augmentation;
there may or may not be significant weather present at this time

 AÉROPORT DE AÉROPORT

 INFORMATIONS DE PISTE
Piste 12 Longueur de la piste 5908 ft Largeur de la piste 150 ft
Élévation de la piste 430 ft Seuil de la piste déplacés 0 ft Runway heading 135
Piste 30 Longueur de la piste 5908 ft Largeur de la piste 150 ft
Élévation de la piste 442 ft Seuil de la piste déplacés 0 ft Runway heading 315

 AÉROPORT FRÉQUENCES
Type A/D Nom BAKERSFIEL Féquence 120.5 MHZ
Type AWOS Nom AWOS 3 Féquence 134.625 MHZ
Type RDO Nom RANCHO RDO Féquence 109.2 MHZ
Type UNIC Nom CTAF/UNICO Féquence 122.8 MHZ

 SIDA DE NAVIGATION



Powered by Virtual Airlines Manager [v2.6.2]